Temp
14 14 14 14 14 14 14 14 14 15 15 15 15 14 14 15 16 16 17 18 17 18 18 19 20 20 21 21 22 24 23 23 24 20 17 17 16 14 21 22 19 21 17 18 17
13 13 14 14 14 14 14 14 15 15 14 14 14 14 14 15 16 17 19 18 18 18 18 18 21 21 22 22 23 24 23 24 23 19 15 14 15 15 22 22 22 20 17 15 15
13 13 13 14 14 14 14 14 14 14 14 14 14 14 14 15 15 19 19 19 19 19 19 19 21 22 22 23 24 24 23 25 21 17 16 15 16 18 22 20 20 19 16 15 15
12 12 13 13 13 13 13 13 14 14 14 13 14 14 14 14 19 19 19 19 19 19 18 19 21 22 23 23 24 24 25 25 23 18 16 14 16 14 18 19 20 18 17 16 16
12 12 12 12 13 13 13 13 13 14 13 13 13 14 14 13 17 19 19 19 19 19 18 21 22 22 23 24 25 24 25 24 25 22 23 19 18 17 16 22 18 18 19 19 18
11 12 12 12 12 12 13 13 13 13 13 13 13 13 13 15 20 20 19 20 19 19 19 21 22 22 23 24 25 25 24 23 23 23 23 18 17 14 22 22 21 20 20 20 19
10 11 11 12 12 12 12 13 13 13 13 13 13 13 11 15 19 20 19 19 20 20 20 21 22 22 23 23 24 24 22 22 22 22 23 19 14 17 22 21 21 21 21 21 20
10 11 11 12 12 12 12 13 13 13 13 13 13 13 14 18 19 19 20 20 20 21 20 21 21 22 22 22 23 23 22 20 23 23 23 21 17 22 22 22 21 21 21 21 20
10 10 11 11 11 12 12 13 13 13 13 13 14 13 16 19 19 20 20 21 21 20 20 20 20 21 22 21 21 21 19 20 22 24 24 22 21 23 23 22 22 21 21 21 20
9 10 10 11 11 11 12 13 13 13 13 13 13 13 16 20 21 21 22 21 21 21 20 20 21 21 22 21 19 20 21 22 23 24 24 23 23 24 23 23 22 22 21 21 20
9 9 10 11 11 11 12 12 12 11 13 16 18 18 20 21 20 21 22 22 22 21 22 22 21 20 22 23 23 23 23 22 24 25 24 24 23 23 24 23 23 22 21 21 20
9 9 10 10 11 11 12 11 16 14 15 17 17 18 19 19 20 22 22 22 22 22 22 21 20 21 23 23 23 24 23 23 25 25 24 24 24 24 24 24 23 22 21 21 20
9 9 10 10 11 12 12 12 13 13 16 18 19 19 20 20 21 22 22 22 23 21 21 20 16 18 22 23 23 24 21 20 21 23 24 24 24 23 24 24 24 23 22 21 20
9 9 10 10 11 12 11 13 14 13 15 20 21 20 20 20 21 22 23 23 23 21 19 17 19 19 21 23 24 20 21 22 21 18 21 22 19 21 23 23 24 23 23 22 21
8 9 9 9 10 12 13 14 13 13 15 23 21 21 21 21 23 23 23 23 22 22 21 17 19 20 22 23 23 19 20 21 24 23 22 19 18 20 21 22 23 23 22 22 21
8 8 9 9 10 12 12 13 13 15 15 21 22 22 22 22 23 23 22 22 23 23 23 18 19 20 21 23 24 22 21 23 23 22 19 18 19 19 20 20 22 22 21 21 20
8 9 9 8 10 12 12 12 14 15 22 21 21 22 22 22 22 23 22 22 21 20 21 21 22 24 23 23 23 23 22 19 13 14 19 24 22 23 19 23 21 22 21 20 19
8 8 9 9 10 10 11 12 14 19 20 23 22 22 21 22 22 22 22 22 23 23 22 19 19 22 24 23 16 18 21 15 16 16 19 21 22 22 23 23 23 22 21 19 18
7 7 8 10 10 9 11 12 16 20 22 22 22 21 21 22 22 22 22 22 23 23 21 20 19 18 23 24 21 19 21 22 21 18 17 21 23 22 22 22 22 21 20 19 18
7 6 8 9 9 8 11 13 17 20 22 23 21 22 20 22 21 22 22 23 23 24 23 18 14 16 21 22 23 22 23 20 21 18 17 21 22 20 21 21 21 21 20 19 18
6 8 11 8 9 9 12 14 17 20 21 21 21 21 22 22 22 21 22 23 24 23 23 19 15 20 22 21 22 21 21 21 22 21 18 17 20 23 22 22 21 21 20 19 18
6 9 12 9 10 12 13 16 17 19 21 21 21 22 22 22 21 21 21 23 23 23 21 22 22 20 21 23 23 22 22 22 18 19 19 17 18 23 22 22 21 21 21 20 18
7 10 9 11 11 12 14 16 18 19 20 21 20 22 23 22 21 22 23 20 22 22 21 22 20 18 20 22 22 21 22 22 22 19 18 15 19 22 22 21 21 21 21 20 19
8 9 8 9 13 14 14 15 17 19 20 21 21 22 22 21 22 21 22 19 19 20 18 19 21 20 18 20 22 21 21 22 21 16 17 17 20 22 22 21 21 20 20 20 19
8 12 10 9 11 14 16 17 17 18 20 20 21 21 21 20 21 21 22 18 18 17 18 20 19 20 21 22 22 21 21 22 21 21 18 19 20 22 23 22 22 21 20 20 20
8 11 12 14 12 14 14 16 18 19 20 19 20 21 22 20 21 21 21 19 19 18 19 20 18 18 18 20 20 19 20 20 21 21 21 21 21 23 22 21 20 20 19 20 19
7 11 11 13 13 14 15 16 18 20 20 20 21 21 20 21 22 20 22 21 21 19 18 19 17 16 15 17 16 13 17 19 20 21 21 19 21 22 22 21 20 19 19 18 18
Height
1533 1533 1533 1532 1531 1530 1528 1525 1524 1520 1517 1513 1510 1508 1505 1502 1500 1498 1494 1496 1497 1497 1497 1498 1500 1500 1500 1498 1495 1492 1492 1486 1477 1487 1501 1498 1506 1504 1497 1497 1496 1496 1495 1499 1504
1531 1531 1530 1530 1528 1527 1526 1523 1521 1518 1515 1511 1508 1507 1504 1501 1497 1493 1492 1493 1495 1495 1496 1497 1497 1497 1496 1494 1492 1489 1487 1481 1484 1490 1497 1494 1502 1509 1496 1497 1497 1497 1499 1500 1506
1528 1528 1528 1527 1526 1525 1523 1521 1519 1516 1513 1509 1508 1505 1504 1500 1497 1493 1490 1491 1492 1493 1494 1496 1497 1494 1493 1490 1487 1484 1484 1475 1487 1488 1487 1487 1498 1496 1495 1499 1496 1499 1502 1506 1507
1525 1525 1525 1524 1523 1522 1520 1519 1516 1514 1511 1508 1505 1504 1502 1501 1494 1492 1491 1490 1491 1492 1494 1495 1495 1493 1491 1486 1483 1483 1477 1477 1484 1487 1488 1496 1511 1510 1499 1498 1491 1502 1499 1503 1507
1522 1522 1522 1522 1521 1520 1518 1517 1514 1512 1509 1507 1504 1503 1503 1503 1493 1492 1491 1490 1490 1492 1495 1494 1493 1491 1486 1482 1480 1479 1477 1480 1481 1487 1488 1493 1499 1503 1495 1487 1496 1501 1500 1502 1509
1520 1519 1519 1519 1519 1517 1516 1514 1512 1510 1507 1506 1504 1503 1503 1502 1492 1492 1491 1490 1491 1492 1495 1493 1491 1489 1486 1482 1478 1476 1478 1480 1485 1486 1491 1499 1505 1511 1493 1493 1497 1499 1502 1505 1508
1517 1517 1517 1516 1516 1515 1514 1512 1510 1507 1506 1504 1503 1502 1502 1493 1490 1492 1491 1491 1492 1492 1493 1491 1491 1491 1487 1483 1481 1480 1485 1485 1487 1488 1491 1497 1515 1503 1494 1496 1500 1501 1503 1507 1510
1515 1514 1514 1514 1514 1513 1511 1509 1507 1505 1504 1503 1503 1502 1496 1490 1491 1490 1490 1490 1489 1490 1491 1491 1491 1490 1489 1490 1485 1483 1488 1497 1482 1486 1489 1493 1512 1493 1492 1497 1501 1503 1506 1510 1514
1512 1512 1511 1511 1512 1511 1509 1507 1505 1503 1502 1503 1502 1502 1493 1489 1488 1486 1488 1488 1487 1488 1489 1491 1492 1491 1491 1492 1492 1493 1503 1495 1485 1482 1484 1492 1491 1488 1492 1496 1500 1504 1508 1512 1516
1509 1508 1509 1509 1510 1509 1508 1506 1503 1501 1501 1502 1500 1505 1489 1486 1484 1484 1485 1487 1487 1488 1490 1490 1490 1489 1487 1493 1507 1495 1491 1484 1482 1478 1479 1482 1483 1486 1491 1494 1499 1503 1507 1511 1516
1506 1506 1506 1507 1507 1506 1507 1507 1505 1502 1501 1494 1490 1487 1483 1483 1484 1484 1483 1485 1485 1486 1484 1487 1488 1491 1486 1481 1480 1479 1480 1482 1473 1472 1475 1477 1481 1485 1488 1491 1495 1501 1506 1510 1515
1502 1503 1503 1504 1505 1505 1505 1507 1504 1505 1495 1488 1486 1486 1485 1485 1482 1479 1481 1483 1481 1481 1486 1489 1492 1485 1482 1481 1478 1473 1478 1476 1469 1471 1474 1473 1477 1479 1484 1488 1491 1496 1502 1507 1513
1498 1500 1501 1502 1503 1502 1502 1502 1503 1503 1495 1480 1478 1482 1482 1483 1480 1475 1478 1479 1479 1485 1484 1492 1501 1493 1485 1478 1475 1469 1486 1484 1487 1478 1472 1473 1478 1478 1482 1487 1489 1492 1496 1502 1507
1493 1496 1498 1500 1504 1499 1500 1501 1502 1504 1496 1473 1472 1476 1479 1480 1477 1472 1472 1477 1476 1483 1489 1498 1491 1492 1479 1474 1470 1487 1485 1481 1487 1495 1491 1485 1505 1484 1480 1484 1484 1486 1490 1495 1501
1489 1492 1494 1498 1497 1499 1502 1502 1504 1505 1503 1456 1466 1469 1473 1475 1467 1470 1471 1473 1475 1476 1483 1503 1491 1485 1477 1474 1473 1490 1483 1482 1473 1476 1484 1494 1507 1493 1486 1477 1476 1483 1488 1492 1497
1484 1488 1491 1492 1495 1497 1498 1500 1504 1503 1497 1463 1460 1464 1468 1470 1468 1465 1471 1474 1472 1476 1475 1486 1487 1480 1472 1473 1472 1478 1481 1474 1474 1480 1497 1493 1498 1496 1490 1488 1477 1487 1490 1492 1497
1479 1483 1487 1490 1494 1496 1498 1500 1502 1493 1456 1458 1459 1464 1466 1466 1466 1466 1468 1471 1475 1483 1479 1478 1476 1470 1472 1472 1471 1474 1477 1497 1533 1525 1497 1461 1477 1463 1474 1471 1474 1479 1488 1492 1496
1475 1479 1481 1484 1489 1494 1496 1501 1492 1463 1461 1448 1454 1459 1465 1461 1463 1464 1466 1468 1467 1468 1470 1487 1492 1472 1469 1471 1490 1490 1482 1519 1522 1514 1492 1477 1478 1472 1466 1471 1471 1478 1486 1492 1497
1470 1474 1475 1480 1486 1491 1495 1490 1473 1455 1448 1450 1454 1459 1461 1457 1459 1462 1464 1464 1462 1464 1474 1479 1485 1482 1472 1468 1478 1483 1481 1475 1486 1493 1499 1481 1468 1467 1468 1472 1475 1479 1486 1492 1497
1463 1471 1469 1476 1482 1488 1487 1475 1462 1452 1446 1446 1457 1454 1460 1457 1460 1460 1462 1457 1457 1457 1462 1479 1501 1496 1477 1474 1472 1474 1472 1486 1484 1507 1508 1478 1467 1476 1474 1473 1477 1478 1485 1490 1496
1462 1466 1464 1471 1479 1483 1467 1464 1462 1452 1450 1451 1452 1451 1451 1451 1453 1458 1459 1454 1454 1458 1462 1469 1491 1480 1474 1474 1471 1476 1479 1476 1476 1480 1501 1504 1484 1465 1468 1470 1476 1478 1482 1487 1492
1454 1456 1454 1463 1473 1466 1459 1457 1457 1453 1450 1450 1450 1447 1447 1445 1452 1456 1458 1452 1454 1458 1466 1464 1465 1475 1470 1460 1463 1467 1470 1469 1491 1494 1488 1496 1492 1467 1469 1471 1474 1477 1479 1483 1488
1444 1450 1452 1453 1454 1452 1457 1455 1452 1450 1448 1449 1452 1447 1443 1445 1452 1449 1449 1458 1456 1459 1463 1463 1470 1485 1477 1468 1465 1471 1469 1468 1470 1478 1491 1506 1490 1468 1471 1473 1474 1475 1477 1481 1485
1439 1441 1445 1448 1444 1446 1450 1448 1448 1447 1444 1443 1446 1445 1443 1445 1441 1450 1450 1460 1462 1463 1467 1467 1466 1473 1486 1473 1464 1467 1469 1465 1469 1492 1491 1489 1478 1466 1466 1468 1470 1473 1476 1478 1481
1424 1422 1423 1429 1435 1437 1441 1441 1442 1441 1441 1443 1441 1441 1442 1450 1446 1449 1448 1460 1463 1466 1468 1469 1475 1470 1465 1462 1461 1467 1466 1463 1468 1469 1482 1479 1474 1463 1459 1464 1466 1469 1472 1476 1479
1417 1412 1416 1417 1430 1435 1434 1431 1432 1432 1434 1440 1438 1438 1438 1445 1445 1448 1448 1455 1460 1467 1467 1468 1474 1473 1473 1467 1466 1473 1469 1466 1465 1465 1463 1464 1465 1459 1461 1465 1468 1470 1473 1474 1477
1409 1407 1411 1417 1420 1425 1415 1424 1425 1426 1429 1434 1434 1436 1439 1439 1438 1444 1442 1446 1451 1459 1465 1466 1474 1479 1486 1479 1481 1491 1473 1467 1464 1460 1462 1470 1463 1460 1461 1463 1468 1472 1473 1475 1478
Wind_Speed
17 17 18 18 19 20 21 22 24 24 24 24 23 22 19 19 18 17 20 9 12 9 12 5 9 11 13 16 18 19 11 14 16 11 5 17 5 9 11 11 14 7 12 23 22
18 17 18 18 19 20 21 22 24 24 24 23 22 21 18 18 19 20 14 12 14 14 11 11 12 11 14 17 19 13 12 15 8 9 4 3 5 20 4 6 10 15 20 23 19
17 17 18 18 19 20 21 22 24 24 24 21 20 18 15 15 15 2 4 4 7 11 13 14 12 14 13 19 17 18 15 12 12 22 21 14 25 32 5 7 9 16 19 20 20
16 17 18 18 19 20 21 22 23 23 22 19 17 15 12 11 1 6 6 3 5 9 9 13 13 14 13 15 15 15 17 15 15 15 11 12 8 21 12 13 20 12 26 23 20
16 17 18 18 18 19 20 22 22 23 19 17 15 13 10 9 15 7 7 3 3 10 9 9 9 10 13 14 13 14 8 13 4 18 3 20 18 4 18 13 18 23 21 22 18
17 17 17 17 18 19 20 21 21 20 17 15 13 11 8 12 3 4 3 3 2 9 9 10 9 10 14 15 10 3 4 8 11 6 3 22 10 5 4 22 21 21 20 18 17
17 17 17 16 17 18 19 19 20 18 15 12 11 9 11 21 6 1 5 5 4 8 10 12 10 9 3 11 6 12 12 8 2 4 2 30 7 16 10 19 20 20 21 19 19
17 17 16 16 17 17 18 18 18 15 12 9 8 7 10 7 9 15 9 12 10 8 10 9 6 12 10 10 4 4 7 3 2 10 12 11 14 13 19 17 18 17 20 20 19
18 17 15 16 16 16 16 16 15 12 9 7 4 5 11 6 11 12 11 12 4 4 6 6 4 7 9 7 1 3 8 15 9 16 6 10 12 15 16 18 20 20 21 22 22
18 16 15 15 15 15 14 14 12 10 7 9 7 10 12 10 7 9 6 5 6 5 4 5 6 7 6 7 8 13 14 12 9 11 13 16 7 14 17 19 19 20 21 20 17
18 16 15 14 14 13 12 8 9 3 12 13 8 9 4 3 6 10 12 7 9 9 5 7 6 9 12 14 11 6 7 13 13 10 12 11 14 13 17 16 21 21 20 21 22
18 16 14 14 13 12 10 7 6 8 12 19 21 20 16 9 8 14 13 10 13 8 2 9 10 6 9 15 18 13 6 9 11 10 10 11 10 13 14 17 19 20 22 22 22
19 16 14 13 13 13 14 16 8 15 8 18 23 21 15 15 16 15 12 15 5 4 8 7 8 24 19 22 17 11 8 9 11 7 9 7 11 15 14 16 19 21 24 23 23
20 16 14 10 9 8 11 9 7 6 5 10 16 15 16 11 15 20 21 15 7 5 12 5 17 21 22 5 7 5 9 10 15 11 9 7 6 2 11 14 17 23 22 26 26
21 17 14 12 8 6 3 3 3 4 4 11 16 8 17 17 7 16 8 13 12 4 11 15 11 20 18 4 3 4 15 17 11 9 4 4 7 17 11 16 14 13 17 20 22
23 19 16 17 18 13 4 6 5 5 7 6 11 12 20 18 14 9 16 13 9 10 13 13 17 26 2 3 0 14 13 12 9 9 6 15 12 9 13 16 9 17 19 16 16
24 21 21 14 8 7 9 3 5 7 5 10 16 15 16 14 15 10 12 17 12 9 8 0 12 4 8 8 5 7 8 3 5 6 5 9 7 2 19 14 20 18 18 19 18
26 22 23 24 14 4 9 7 11 12 21 2 14 15 19 16 14 12 14 15 18 17 10 9 10 11 9 5 4 17 1 2 3 3 6 13 4 5 12 8 12 18 17 18 18
27 24 25 26 20 11 16 12 11 10 17 10 12 16 17 18 9 14 15 16 16 17 15 1 2 10 16 3 11 11 4 3 6 3 2 5 11 7 7 8 6 15 18 20 20
29 18 27 25 24 14 11 19 16 24 12 10 15 15 15 17 13 11 13 13 17 17 10 6 6 16 21 5 5 6 6 3 2 2 4 8 11 10 7 8 6 12 17 21 20
25 12 13 22 23 17 14 18 22 25 19 11 14 14 16 14 14 12 9 10 16 8 3 7 13 11 8 8 8 5 7 6 8 4 1 4 4 6 7 8 7 8 17 21 22
22 8 23 35 16 16 15 21 29 25 14 11 15 15 13 14 14 16 15 13 12 8 8 12 5 4 10 2 5 10 11 8 3 6 3 0 5 4 6 6 7 8 15 20 23
19 17 31 36 12 13 17 24 28 23 19 15 15 12 13 14 12 14 9 5 7 7 3 4 4 5 9 7 8 8 12 9 8 2 5 3 3 6 6 4 4 5 10 15 19
17 8 12 30 25 22 23 21 25 30 20 17 14 16 13 13 9 9 9 4 3 1 3 5 5 9 6 11 4 6 10 11 10 3 4 9 13 7 11 10 9 11 6 9 18
16 12 14 10 18 17 20 20 26 25 24 19 17 17 13 10 11 11 11 6 4 2 2 3 8 12 14 14 12 8 13 7 10 10 10 11 15 12 9 5 4 6 9 10 12
15 11 25 9 27 22 21 26 26 26 19 21 14 18 16 12 13 10 11 8 7 7 8 5 6 5 8 10 13 10 14 15 14 15 15 14 14 11 10 11 11 9 9 8 9
36 25 14 20 21 20 23 24 26 23 22 28 17 14 15 9 6 9 6 18 8 11 10 7 3 2 2 6 7 5 10 15 16 15 11 12 10 8 9 5 9 4 7 3 8
Wind_Direction
281 286 290 297 301 306 311 315 317 319 319 320 322 320 315 307 306 294 280 241 277 265 252 234 247 246 248 255 256 251 262 263 276 19 52 65 88 354 173 190 197 157 119 153 164
281 285 289 294 300 306 311 314 314 317 317 320 321 317 313 312 306 291 301 264 262 245 251 232 242 243 249 246 247 237 246 261 45 119 108 70 89 241 200 190 154 106 95 130 156
282 283 288 292 298 304 310 312 314 316 316 319 319 315 313 316 323 145 356 299 266 242 240 231 258 276 253 252 243 233 250 280 119 127 134 126 226 239 76 21 300 133 132 139 143
284 280 285 291 297 303 308 311 314 314 315 319 317 311 310 304 247 23 6 313 239 199 208 246 258 255 248 259 238 247 257 269 146 167 158 138 183 31 297 166 219 154 133 144 157
289 279 282 290 296 301 307 310 314 313 314 315 313 308 316 280 263 285 296 344 218 203 215 242 247 244 252 250 252 229 265 316 295 161 106 63 73 143 278 164 172 153 133 147 153
292 281 283 289 295 300 306 310 311 311 312 311 312 307 308 269 311 258 224 341 175 204 226 251 256 272 291 302 262 246 12 31 8 108 139 80 13 30 207 101 120 131 136 141 158
291 283 283 288 292 300 306 309 309 308 308 311 307 306 280 249 236 281 262 224 243 237 241 245 257 268 271 285 7 102 58 2 241 172 213 107 258 207 128 121 138 143 140 143 134
285 286 283 285 291 300 305 308 306 305 303 306 297 303 262 265 261 257 255 256 266 255 237 265 278 259 292 344 275 142 95 305 218 218 219 80 222 199 125 135 133 138 137 142 145
280 285 281 281 290 299 303 306 302 298 298 288 288 291 274 297 241 230 225 246 193 235 219 250 244 237 233 242 73 108 232 225 220 223 179 172 252 136 144 151 147 153 154 159 160
275 281 278 279 288 297 303 304 297 290 286 264 242 272 256 238 212 232 211 222 212 170 195 243 217 222 210 208 211 209 225 217 229 192 232 184 164 153 170 162 156 162 164 161 164
267 274 272 275 283 291 299 305 313 283 216 230 228 234 310 304 272 228 232 208 226 198 202 251 213 213 224 220 236 256 251 224 203 182 224 211 155 169 179 187 161 168 172 173 174
259 267 267 269 278 282 276 241 16 345 297 257 247 251 262 274 275 212 204 228 206 224 83 251 332 287 248 239 247 283 297 231 159 173 222 223 185 170 184 191 183 174 174 177 178
251 258 260 264 275 275 271 249 267 333 271 281 223 232 235 230 240 225 196 228 237 221 235 244 188 279 259 244 243 265 111 314 3 288 223 259 221 166 186 207 208 189 184 185 182
241 246 248 254 286 304 265 293 248 276 279 250 194 222 223 227 235 234 199 222 238 183 77 341 272 263 280 263 277 6 330 195 168 250 220 7 307 112 172 210 208 197 192 187 189
233 236 234 221 225 198 33 113 196 207 281 158 181 187 195 205 232 217 197 206 250 8 175 200 308 292 256 204 43 175 244 267 259 277 188 31 297 216 243 220 206 211 208 193 184
224 228 224 223 230 191 183 138 207 228 238 178 153 206 209 206 231 228 202 216 240 210 248 152 211 249 82 284 38 174 224 241 271 296 218 208 214 152 199 234 219 202 201 197 191
219 222 221 198 213 215 211 166 207 231 223 184 178 190 218 201 224 216 197 204 218 217 223 65 241 222 183 213 180 228 268 267 34 319 224 272 204 89 203 209 177 186 181 189 167
215 218 220 212 184 214 180 212 229 202 240 70 192 194 209 215 213 204 228 210 209 231 240 166 238 248 199 253 94 320 282 128 344 246 323 354 262 104 98 109 111 152 174 168 172
206 215 222 213 197 201 204 213 205 242 194 230 201 201 207 222 213 208 224 213 213 221 249 256 127 4 310 243 154 216 264 106 284 105 315 263 280 100 106 110 132 155 170 174 179
197 208 225 207 196 194 219 228 223 244 288 196 227 212 210 216 189 215 205 228 224 211 168 128 31 289 252 233 219 261 348 283 198 289 263 301 257 120 164 137 167 170 178 178 186
184 203 230 192 189 205 220 217 232 243 248 274 225 224 224 214 190 230 223 213 223 150 252 150 169 200 164 211 254 176 242 241 263 269 101 320 77 49 89 133 162 216 181 185 190
178 211 198 176 181 212 219 215 226 241 235 244 272 246 221 229 205 225 213 216 205 231 205 226 304 265 224 342 354 322 299 231 185 271 175 16 288 88 109 130 167 205 191 195 193
179 186 176 184 202 208 206 225 228 234 232 207 242 246 250 239 212 211 215 38 110 203 242 243 231 269 281 220 199 237 251 248 275 111 236 175 256 149 153 168 180 234 205 198 199
175 178 179 204 219 199 199 211 224 237 236 227 227 239 240 235 211 208 215 122 132 146 65 331 248 250 243 261 344 235 239 252 230 156 239 258 274 232 204 196 204 181 244 229 204
188 207 177 193 207 217 197 212 211 221 224 242 233 221 230 216 233 216 213 119 148 123 185 241 245 261 264 274 286 287 297 265 256 250 235 252 261 273 315 36 291 187 199 223 260
193 209 176 210 192 208 207 215 209 220 195 225 235 214 210 219 229 202 212 156 175 170 210 200 247 288 298 300 292 279 278 281 274 277 274 269 268 276 16 39 10 6 314 281 266
205 212 203 207 189 193 208 211 219 216 211 205 210 231 214 223 189 71 226 180 203 168 199 193 235 138 249 347 352 321 250 252 263 266 263 269 280 298 311 344 7 338 307 308 293